EW7835 Weather Reports


Display with metric or nautical units.
time (UTC)temp
F
wind
direction
speed
MPH
gust
MPH
rain 1hr
in
rain 24hr
in
rain mn
in
humidity
%
barometer
mb
20260508034533 41 0.0 0.0 0.00 0.00 0.00 56 1005.6
20260508033034 42 0.0 0.0 0.00 0.00 0.00 56 1005.8
20260508031556 42 0.0 0.0 0.00 0.00 0.00 57 1005.8
20260508030050 43 0.0 0.0 0.00 0.00 0.00 54 1005.9
20260508024542 43 0.0 0.0 0.00 0.00 0.00 52 1006.0
20260508023038 43 0.0 0.0 0.00 0.00 0.00 54 1005.9
20260508021537 43 0.0 0.0 0.00 0.00 0.00 55 1006.0
20260508020030 43 0.0 0.0 0.00 0.00 0.00 52 1005.8
20260508014523 44 0.0 0.0 0.00 0.00 0.00 50 1005.8
20260508013018 44 0.0 0.0 0.00 0.00 0.00 47 1005.7
20260508011515 45 0.0 0.0 0.00 0.00 0.00 46 1005.6
20260508010018 46 0.0 0.0 0.00 0.00 0.00 44 1005.5
20260508004502 47 0.0 0.0 0.00 0.00 0.00 43 1005.2
20260508003117 47 0.0 0.0 0.00 0.00 0.00 41 1005.1
20260508001557 48 0.0 0.0 0.00 0.00 0.00 40 1004.9
20260508000050 49 0.0 0.0 0.00 0.00 0.00 39 1004.7
20260507234543 50 0.0 0.0 0.00 0.00 0.00 38 1004.6
20260507233041 50 0.0 0.0 0.00 0.00 0.00 37 1004.5
20260507231534 51 0.0 0.0 0.00 0.00 0.00 38 1004.5
20260507230046 52 0.0 0.0 0.00 0.00 0.00 37 1004.4
20260507224529 52 0.0 0.0 0.00 0.00 0.00 36 1004.4
20260507223033 52 0.0 0.0 0.00 0.00 0.00 36 1004.3
20260507221514 53 0.0 0.0 0.00 0.00 0.00 37 1004.5
20260507220010 53 0.0 0.0 0.00 0.00 0.00 38 1004.6
20260507214503 53 0.0 0.0 0.00 0.00 0.00 39 1004.6
20260507213142 52 0.0 0.0 0.00 0.00 0.00 43 1004.5
20260507211556 52 0.0 0.0 0.00 0.00 0.00 42 1004.6
20260507210055 52 0.0 0.0 0.00 0.00 0.00 44 1004.4
20260507204544 52 0.0 0.0 0.00 0.00 0.00 41 1004.4
20260507203041 53 0.0 0.0 0.00 0.00 0.00 41 1004.5
20260507201537 53 0.0 0.0 0.00 0.00 0.00 42 1004.4
20260507200047 52 0.0 0.0 0.00 0.00 0.00 40 1004.6
20260507194522 52 0.0 0.0 0.00 0.00 0.00 43 1004.8
20260507193037 53 0.0 0.0 0.00 0.00 0.00 41 1004.7
20260507191513 53 0.0 0.0 0.00 0.00 0.00 40 1005.0
20260507190007 53 0.0 0.0 0.00 0.00 0.00 42 1005.1
20260507184534 52 0.0 0.0 0.00 0.00 0.00 45 1005.3
20260507183037 53 0.0 0.0 0.00 0.00 0.00 45 1005.4
20260507181522 53 0.0 0.0 0.00 0.00 0.00 44 1005.5
20260507180018 51 0.0 0.0 0.00 0.00 0.00 46 1005.6
20260507174519 51 0.0 0.0 0.00 0.00 0.00 45 1005.6
20260507173015 52 0.0 0.0 0.00 0.00 0.00 50 1005.6
20260507171502 51 0.0 0.0 0.00 0.00 0.00 50 1005.8
20260507170057 50 0.0 0.0 0.00 0.00 0.00 53 1005.8
20260507164556 51 0.0 0.0 0.00 0.00 0.00 50 1005.9
20260507163051 51 0.0 0.0 0.00 0.00 0.00 49 1006.2
20260507161554 50 0.0 0.0 0.00 0.00 0.00 49 1006.4
20260507160042 50 0.0 0.0 0.00 0.00 0.00 51 1006.5
20260507154537 50 0.0 0.0 0.00 0.00 0.00 51 1006.6
20260507153036 50 0.0 0.0 0.00 0.00 0.00 51 1006.5
20260507151529 50 0.0 0.0 0.00 0.00 0.00 54 1006.7
20260507150021 49 0.0 0.0 0.00 0.00 0.00 52 1006.8
20260507144525 49 0.0 0.0 0.00 0.00 0.00 53 1006.8
20260507143011 48 0.0 0.0 0.00 0.00 0.00 50 1006.9
20260507141507 48 0.0 0.0 0.00 0.00 0.00 52 1006.9
20260507140001 48 0.0 0.0 0.00 0.00 0.00 54 1006.9
20260507134601 47 0.0 0.0 0.00 0.00 0.00 53 1006.9
20260507133053 46 0.0 0.0 0.00 0.00 0.00 55 1007.0
20260507131548 45 0.0 0.0 0.00 0.00 0.00 55 1007.1
20260507130056 45 0.0 0.0 0.00 0.00 0.00 55 1007.1
20260507124540 44 0.0 0.0 0.00 0.00 0.00 58 1007.0
20260507123035 43 0.0 0.0 0.00 0.00 0.00 58 1007.0
20260507121528 42 0.0 0.0 0.00 0.00 0.00 57 1006.9
20260507120032 42 0.0 0.0 0.00 0.00 0.00 53 1006.8
20260507114519 41 0.0 0.0 0.00 0.00 0.00 47 1006.8
20260507113013 40 0.0 0.0 0.00 0.00 0.00 43 1006.7
20260507111509 40 0.0 0.0 0.00 0.00 0.00 35 1006.6
20260507110001 39 0.0 0.0 0.00 0.00 0.00 26 1006.4
20260507104557 39 0.0 0.0 0.00 0.00 0.00 13 1006.4
20260507103052 38 0.0 0.0 0.00 0.00 0.00 1 1006.2
20260507101557 38 0.0 0.0 0.00 0.00 0.00 1 1006.0
20260507100016 39 0.0 0.0 0.00 0.00 0.00 1 1006.1
20260507094509 39 0.0 0.0 0.00 0.00 0.00 1 1006.2
20260507093035 40 0.0 0.0 0.00 0.00 0.00 1 1006.1
20260507091531 40 0.0 0.0 0.00 0.00 0.00 1 1006.0
20260507090056 41 0.0 0.0 0.00 0.00 0.00 1 1006.0
20260507084557 41 0.0 0.0 0.00 0.00 0.00 1 1006.0
20260507083018 42 0.0 0.0 0.00 0.00 0.00 1 1005.9
20260507081517 42 0.0 0.0 0.00 0.00 0.00 1 1005.9
20260507080039 42 0.0 0.0 0.00 0.00 0.00 1 1005.9
20260507074536 42 0.0 0.0 0.00 0.00 0.00 1 1006.0
20260507073031 42 0.0 0.0 0.00 0.00 0.00 1 1005.8
20260507071525 43 0.0 0.0 0.00 0.00 0.00 1 1005.8
20260507070024 43 0.0 0.0 0.00 0.00 0.00 1 1005.7
20260507064524 43 0.0 0.0 0.00 0.00 0.00 1 1005.4
20260507063047 43 0.0 0.0 0.00 0.00 0.00 1 1005.1
20260507061537 44 0.0 0.0 0.00 0.00 0.00 1 1005.1
20260507060029 44 0.0 0.0 0.00 0.00 0.00 1 1005.2
20260507054531 44 0.0 0.0 0.00 0.00 0.00 1 1005.2
20260507053020 44 0.0 0.0 0.00 0.00 0.00 1 1005.3
20260507051517 44 0.0 0.0 0.00 0.00 0.00 1 1005.1
20260507050114 44 0.0 0.0 0.00 0.00 0.00 1 1005.3
20260507044541 44 0.0 0.0 0.00 0.00 0.00 1 1005.4
20260507043034 44 0.0 0.0 0.00 0.00 0.00 1 1005.2
20260507041534 45 0.0 0.0 0.00 0.00 0.00 1 1005.9
20260507040023 45 0.0 0.0 0.00 0.00 0.00 1 1005.5